Wind_Gust
24 24 25 27 30 31 34 35 34 32 34 40 29 27 23 18 18 16 16 13 13 18 20 18 22 20 18 17 21 23 24 20 28 29 14 13 12 8 10 11 10 9 12 13 15 16 17 19 20 18 19 19 21 25 30 24 27 24 26 19 26 8 18 30 31 27 27 24 29 28 30 33 34 35 31 36 37 28 25 23 25 23 25 30 26 20 22
23 23 24 25 28 31 33 33 31 30 29 32 27 21 19 18 18 15 16 14 13 18 20 24 22 24 21 20 25 18 23 22 26 27 21 21 12 5 7 9 15 14 12 15 16 13 17 19 19 21 18 20 21 25 28 26 32 24 21 21 25 22 14 23 30 32 32 25 28 30 30 40 43 39 35 32 34 27 26 17 25 23 21 24 23 27 25
22 22 24 25 26 28 30 32 30 31 30 30 22 20 22 29 23 17 18 19 16 18 20 21 21 24 25 30 25 28 25 21 22 21 21 16 15 12 8 12 15 14 9 18 16 16 17 13 23 15 17 20 24 27 29 26 23 20 14 12 20 15 12 26 30 32 33 35 40 45 43 45 45 35 32 31 34 34 32 20 26 23 22 22 23 24 22
21 22 23 24 25 27 29 31 29 30 31 27 24 19 27 19 22 21 16 18 17 19 14 13 19 23 23 25 23 23 29 32 23 18 19 13 21 22 7 13 15 15 8 15 15 16 21 19 17 22 24 25 31 30 29 24 23 15 11 15 19 16 16 23 26 32 32 30 31 27 29 37 46 37 35 34 33 34 28 19 21 24 21 23 20 22 22
20 22 23 23 23 26 27 30 28 29 30 30 27 25 23 23 16 20 23 25 21 19 10 18 21 22 23 25 26 22 28 29 29 19 19 17 25 22 15 13 13 13 19 16 17 18 19 27 19 23 21 25 27 31 28 24 20 15 16 19 19 15 21 24 25 24 24 27 27 30 34 37 37 37 36 33 31 32 32 23 23 20 26 25 21 16 18
20 21 22 22 23 25 28 31 29 30 31 37 28 22 23 16 16 15 12 13 17 24 16 24 24 25 23 22 21 22 25 27 27 26 12 20 18 19 10 9 17 17 19 21 16 13 10 21 15 21 26 24 28 36 27 24 18 17 23 20 20 17 16 19 21 22 21 25 26 30 32 29 33 36 36 33 29 31 34 26 21 21 22 22 18 15 16
20 21 21 22 23 23 26 29 28 29 33 34 20 23 17 18 18 12 15 16 16 19 23 26 25 25 19 21 19 26 25 25 21 16 23 24 17 19 12 17 23 24 21 21 12 14 10 8 13 12 21 23 32 32 28 22 21 22 20 23 13 14 15 16 19 21 21 21 26 30 33 31 33 32 33 31 30 32 32 29 25 21 18 15 13 13 17
19 20 21 21 22 22 24 26 26 28 34 29 18 23 19 17 19 14 22 18 26 22 20 19 18 17 17 21 22 29 27 26 26 20 10 19 16 13 15 21 22 22 21 19 16 5 11 12 9 14 18 26 24 25 20 24 23 22 17 17 11 17 13 14 19 22 22 19 22 28 31 30 33 31 32 32 31 31 31 28 27 22 20 15 13 12 15
18 19 20 21 21 21 22 24 24 26 30 23 22 20 20 14 13 16 20 26 18 19 20 19 20 18 21 25 26 25 25 24 23 22 17 19 17 20 19 20 22 20 18 18 14 10 12 14 14 15 18 16 18 17 19 16 23 22 20 15 13 15 12 13 17 19 24 24 21 26 27 28 27 31 33 35 33 32 35 37 28 23 22 18 13 16 18
16 18 19 20 20 20 20 22 22 23 26 21 20 19 18 16 12 13 14 16 14 24 20 17 20 20 22 23 25 29 26 24 21 26 13 11 15 16 18 23 19 17 16 15 16 15 14 14 15 17 13 11 14 16 17 16 17 20 21 15 17 16 17 14 17 20 21 27 22 25 26 27 32 32 35 33 28 28 30 31 26 26 18 17 14 16 17
15 15 18 19 19 19 19 19 21 21 26 23 20 19 18 19 18 18 15 20 21 18 22 20 21 22 25 26 26 23 23 24 21 18 22 21 20 19 19 19 18 17 13 17 17 17 15 12 12 10 13 11 10 12 15 17 18 17 18 15 16 18 19 17 20 18 24 26 24 25 29 30 35 27 27 28 31 30 30 34 31 23 18 21 13 15 11
15 15 16 17 17 17 18 17 17 18 17 20 16 15 17 17 18 17 18 18 18 20 20 22 23 27 26 27 26 26 26 25 25 18 18 22 25 23 18 17 17 17 18 15 14 12 13 15 13 11 11 11 13 14 16 18 23 24 24 24 19 17 13 18 19 19 26 26 23 27 24 28 15 25 28 28 26 27 31 30 28 23 22 22 20 15 12
16 14 14 14 16 17 17 17 15 15 14 21 16 15 15 15 17 17 17 17 21 24 21 23 23 22 26 25 26 26 25 20 20 19 16 18 21 20 19 21 21 23 20 17 13 14 14 17 17 14 11 10 14 19 25 25 25 24 25 27 23 15 15 15 18 20 26 27 27 29 23 18 13 17 24 23 23 25 27 30 26 24 22 20 21 17 13
16 15 13 13 14 16 16 16 15 13 13 16 18 16 14 15 17 15 14 16 20 20 19 25 20 27 29 26 27 29 25 23 23 16 19 18 19 20 21 22 22 19 16 13 12 15 17 13 16 11 8 13 16 24 25 29 28 29 29 30 27 20 20 19 17 24 29 26 24 19 19 18 16 18 25 33 31 28 29 23 23 19 18 13 13 13 12
16 15 15 14 13 14 16 15 14 13 11 13 18 15 13 13 14 15 15 16 20 28 21 19 26 27 28 28 25 31 28 27 29 26 21 13 17 23 21 23 21 16 17 16 13 15 15 14 11 5 7 11 13 14 16 22 20 30 29 24 26 22 24 21 21 22 21 26 24 21 19 17 17 16 19 20 15 16 18 16 19 14 14 14 14 12 11
16 15 15 15 13 13 15 14 14 13 10 12 18 16 14 13 13 13 14 15 19 18 16 22 20 26 28 27 23 24 28 27 29 27 21 25 24 25 21 24 18 16 10 13 15 13 12 9 7 5 9 13 17 18 17 20 16 16 19 14 18 20 24 21 17 20 24 22 22 22 20 16 17 17 18 17 17 13 11 17 21 20 17 14 15 15 14
16 15 15 15 14 13 13 14 14 13 12 9 19 17 16 10 13 13 15 13 13 26 28 22 19 23 27 24 23 22 25 24 30 26 27 32 29 26 27 26 20 17 15 17 13 13 11 10 9 10 12 14 17 14 23 21 18 19 20 13 16 20 20 18 19 18 23 20 24 22 13 16 13 15 16 19 17 13 17 24 23 16 14 13 13 15 17
15 15 15 14 15 13 12 13 14 13 13 10 18 18 17 9 10 13 14 15 19 22 18 13 22 25 22 24 25 23 22 24 21 19 22 26 25 30 33 27 26 19 22 12 14 10 9 10 12 11 14 13 19 16 17 21 19 16 21 21 22 20 21 20 23 23 24 16 21 21 21 18 14 14 15 19 16 18 22 21 19 13 13 12 13 16 17
14 15 15 15 16 13 12 12 14 13 13 12 20 19 13 11 10 12 17 18 16 20 22 28 24 21 20 18 20 22 22 22 24 23 27 22 30 36 31 15 24 25 27 21 16 12 10 13 9 11 13 14 17 14 19 18 18 20 19 19 15 15 12 18 18 21 21 16 20 21 21 16 15 12 14 20 23 21 19 18 10 11 14 13 14 18 17
15 15 16 16 16 12 11 11 13 13 13 13 14 20 20 13 10 10 15 18 19 29 33 33 24 22 19 20 22 22 23 22 20 25 24 26 28 32 20 17 26 28 23 25 18 17 14 12 12 11 10 14 14 14 15 12 16 20 22 19 16 18 11 16 15 13 15 14 21 23 20 10 13 15 19 14 13 17 17 16 15 13 17 17 16 18 17
16 15 17 16 14 12 11 12 13 13 13 13 11 20 20 8 10 11 11 17 22 27 25 12 11 21 25 25 23 24 23 25 23 25 24 25 26 25 23 21 25 26 22 22 18 15 14 11 12 9 8 11 15 14 15 17 15 19 21 19 19 23 10 15 16 21 18 21 18 16 15 15 14 15 16 19 22 17 16 18 19 17 17 17 17 17 16
16 16 17 15 12 11 12 13 13 14 14 13 13 21 21 15 13 13 14 15 23 28 27 30 33 35 33 31 29 27 28 25 22 20 24 24 20 19 15 14 17 20 22 21 15 9 13 14 9 9 8 9 9 10 16 16 16 21 20 16 13 24 18 15 15 18 16 16 19 18 15 17 19 22 25 20 18 17 18 18 18 18 19 16 18 18 16
16 16 16 16 12 12 13 13 14 14 15 13 15 19 20 20 18 13 16 25 24 34 37 38 32 34 33 36 32 28 28 25 22 19 18 22 24 18 15 19 18 18 15 19 15 17 17 17 10 10 11 10 10 12 12 13 13 21 18 19 15 15 16 14 14 22 22 23 20 19 21 21 23 23 21 19 16 18 18 18 20 20 19 18 19 16 16
16 16 17 14 13 15 15 14 14 14 14 13 12 19 20 19 19 17 18 21 22 28 31 19 17 13 16 17 13 16 22 22 24 21 16 18 20 20 13 20 20 14 13 16 14 15 17 15 16 13 10 14 15 12 9 12 10 16 16 14 17 13 20 18 17 17 17 22 16 19 22 20 20 22 21 20 18 20 19 20 21 19 19 20 18 17 16
16 16 15 13 16 16 15 14 14 15 13 14 16 16 18 21 15 14 19 18 16 15 21 23 25 22 16 15 17 19 18 18 17 20 19 21 23 22 22 20 20 18 19 17 16 15 12 12 17 14 8 13 15 10 11 10 11 11 12 15 16 15 18 15 20 19 20 21 16 19 19 20 18 19 20 20 21 21 20 21 19 19 18 17 16 14 15
15 15 13 13 14 16 15 15 15 14 14 14 14 20 20 21 17 15 15 18 19 17 18 20 18 15 21 21 19 17 14 14 17 18 21 23 24 23 22 23 19 15 19 19 14 14 14 14 17 14 13 10 13 16 12 13 12 10 11 12 10 15 19 12 12 16 19 15 16 17 23 21 21 21 20 20 20 19 18 18 19 19 20 19 19 18 18
15 14 13 13 14 15 16 16 16 15 14 13 16 19 19 21 17 16 18 16 18 16 18 23 28 30 23 28 24 19 15 15 16 18 19 21 21 20 19 18 19 18 17 16 12 13 12 15 13 16 15 16 15 17 16 12 11 7 8 13 11 13 13 15 18 14 16 14 15 16 15 16 19 18 18 17 17 17 18 18 20 18 17 18 19 19 18
14 13 14 14 15 16 16 15 14 12 11 13 16 21 20 22 15 12 10 14 15 15 24 30 33 30 37 33 14 15 15 17 16 16 17 16 17 17 17 17 17 18 16 14 16 11 13 14 12 11 13 15 19 13 12 9 11 13 11 14 15 13 11 14 11 11 11 13 12 14 12 13 15 14 15 15 16 17 18 18 18 18 17 17 17 18 19
14 14 14 14 14 15 15 15 13 10 11 14 22 22 21 10 9 5 9 11 13 15 21 30 34 33 19 19 23 20 13 12 13 14 14 15 15 15 16 16 16 15 14 12 13 16 16 14 12 14 13 16 17 18 15 9 9 7 15 11 12 13 10 12 13 11 11 11 12 12 15 14 14 13 13 16 16 16 18 18 18 18 18 18 18 18 18
14 14 15 15 15 15 15 15 14 13 11 20 19 22 17 12 9 9 9 11 10 14 16 19 20 14 26 20 13 13 14 12 11 11 13 15 14 15 15 14 14 14 15 14 14 16 14 16 12 13 10 8 15 13 14 10 10 13 12 12 10 10 10 10 11 12 13 16 13 12 9 11 10 13 13 15 16 17 19 19 18 18 19 18 19 19 18
15 16 16 16 15 15 16 15 14 11 10 18 17 16 16 10 13 7 7 11 7 12 14 13 26 26 23 16 18 17 16 14 10 12 12 12 13 13 13 13 13 14 10 11 12 13 13 13 10 10 12 11 10 11 14 14 10 12 14 10 11 10 10 11 10 10 12 12 14 13 10 9 8 11 15 15 16 15 16 18 18 15 16 18 19 18 18
15 17 17 16 16 16 16 15 15 12 17 19 18 18 19 16 13 11 7 7 10 12 11 18 22 15 18 19 13 14 15 13 12 14 16 14 14 12 12 15 12 12 12 14 12 13 13 9 11 11 15 14 9 17 18 15 7 11 12 9 9 10 10 10 10 11 10 10 12 11 11 10 16 16 13 14 13 14 14 14 14 14 11 16 17 17 17
15 15 15 15 17 17 17 17 16 15 21 20 23 23 19 19 17 15 9 12 13 14 11 14 16 20 18 16 23 13 11 15 17 17 16 16 14 13 12 12 12 14 7 11 13 10 9 8 8 12 10 11 9 13 17 12 10 11 10 10 10 9 10 10 11 11 11 10 11 13 15 18 15 11 9 9 12 11 11 12 13 13 13 15 16 16 16
14 14 15 17 18 18 18 17 14 12 13 17 21 18 16 8 11 10 14 13 12 11 9 12 15 17 25 20 21 14 15 19 14 13 11 17 9 14 12 12 13 11 16 15 8 11 10 11 12 9 11 12 12 13 12 16 10 9 10 10 9 10 10 10 11 12 10 10 11 11 11 11 11 9 9 10 11 10 10 10 10 12 13 13 14 14 14
13 15 16 17 17 16 17 18 20 17 13 13 14 18 16 7 10 5 13 16 8 11 11 12 14 20 21 17 11 13 17 18 13 13 12 13 12 18 10 11 13 10 14 18 17 15 13 12 9 10 10 11 9 9 14 13 10 9 9 10 9 11 11 13 12 11 10 10 11 11 10 9 10 11 11 11 12 12 11 11 10 11 13 13 13 12 12
13 15 17 17 18 15 19 14 18 14 15 14 11 11 9 12 10 16 14 14 14 13 13 11 14 17 17 18 15 15 23 19 13 14 14 9 16 15 14 13 15 15 14 13 13 11 11 12 9 8 11 9 9 14 12 11 11 11 11 12 11 11 10 11 11 10 11 9 9 9 10 11 12 10 11 12 12 12 11 11 11 10 11 13 13 12 13
14 15 17 18 16 16 18 10 9 15 12 13 16 16 14 10 12 9 10 11 14 12 14 13 18 20 17 17 18 16 19 15 13 16 13 14 11 9 11 11 12 9 10 13 13 11 11 11 10 11 10 9 7 11 11 9 9 10 11 12 11 10 10 11 10 12 12 13 13 14 15 14 12 12 12 12 12 11 12 11 10 10 10 12 12 12 12
13 15 20 17 16 12 10 11 11 12 10 9 8 12 15 10 7 6 7 8 11 11 13 16 19 22 15 17 16 17 19 16 18 16 13 9 14 13 7 14 9 7 14 8 11 12 10 8 12 10 8 10 11 11 11 10 11 10 10 11 12 12 11 9 10 12 14 15 16 15 15 15 14 12 12 13 13 13 13 12 11 11 10 11 11 12 12
12 18 18 15 14 14 9 14 13 9 14 8 13 13 10 10 9 9 11 12 9 12 14 17 18 17 16 17 22 14 14 16 19 15 11 16 14 10 9 13 12 12 14 12 10 12 10 12 11 11 11 11 13 13 11 12 11 10 11 10 11 11 10 11 11 13 14 15 15 15 15 20 19 13 12 13 14 13 13 12 11 11 11 11 11 10 10
15 16 12 12 14 9 12 12 10 11 15 12 14 14 15 15 11 8 13 10 14 15 13 15 20 19 13 16 18 16 12 15 16 16 15 19 13 13 11 16 9 12 16 11 10 13 11 13 7 13 8 11 13 13 14 14 13 12 11 11 11 11 12 14 13 14 13 14 14 14 13 14 13 13 13 14 14 15 14 13 13 12 12 14 14 9 9
17 15 14 12 13 11 9 11 12 15 13 10 10 10 11 11 13 11 10 11 14 8 18 14 11 13 15 14 16 16 13 13 14 15 15 15 12 13 13 12 13 10 14 9 12 13 9 14 11 13 12 11 14 15 15 14 14 12 12 12 13 14 14 13 13 12 11 12 12 13 14 13 13 13 13 12 13 13 13 12 12 13 11 12 12 10 10
14 15 19 19 17 15 15 15 14 12 9 13 8 11 11 11 9 13 14 11 7 6 12 13 13 13 14 13 16 15 15 11 17 13 12 10 8 11 12 14 6 9 13 12 13 14 11 10 11 11 17 13 14 15 15 15 14 12 12 12 12 12 13 13 14 13 12 12 12 12 12 12 12 13 13 12 13 12 12 12 12 11 11 10 9 10 10
6 10 11 18 13 12 10 12 13 12 8 7 7 10 8 9 13 14 11 18 9 13 9 13 14 17 16 15 17 19 12 12 12 9 11 13 9 12 13 13 9 15 13 10 13 12 10 11 11 10 14 13 14 14 13 13 13 12 12 11 11 12 12 13 13 13 12 11 11 11 11 11 12 12 12 11 12 11 12 12 10 11 10 10 10 11 11
11 13 15 11 8 9 9 11 14 11 9 11 9 10 9 11 11 13 11 8 9 11 12 15 15 16 12 10 17 14 13 15 9 14 16 11 12 9 9 12 17 13 12 15 12 13 15 10 13 14 13 13 12 12 13 13 13 14 13 12 13 12 13 12 10 9 10 10 10 11 12 12 12 12 10 10 12 11 10 10 10 13 9 10 11 10 11
12 10 10 7 8 8 9 11 13 10 11 12 12 15 10 11 5 9 10 13 15 15 13 13 14 15 18 15 17 14 13 11 12 10 12 12 12 14 15 15 14 15 15 11 12 14 12 6 12 11 11 13 13 13 12 12 13 13 14 14 13 13 11 9 8 8 8 9 10 11 11 10 11 10 11 11 11 11 11 10 9 12 12 13 9 9 9
12 10 10 8 7 11 18 10 12 11 14 11 14 15 15 12 12 11 14 12 16 14 13 14 15 15 18 13 11 11 10 13 14 15 15 15 14 16 15 16 13 15 13 16 10 11 9 12 12 12 12 10 13 13 12 11 11 12 14 13 13 12 10 8 8 8 9 9 10 12 9 9 9 9 9 9 9 10 10 10 11 12 10 12 11 10 10
10 11 11 9 11 13 16 14 14 17 12 12 13 11 12 14 12 16 17 13 17 14 15 14 17 17 16 15 16 15 15 14 15 11 12 15 14 16 15 14 13 14 13 9 9 14 10 13 12 13 11 9 11 12 12 12 12 11 10 11 12 12 11 9 8 8 9 9 8 10 10 9 9 9 9 9 9 9 9 7 8 9 12 12 9 10 11
10 6 11 11 12 14 15 18 18 17 12 15 17 14 12 13 13 17 11 9 11 14 16 16 17 13 16 13 15 15 15 12 13 16 18 17 15 17 14 13 16 17 16 15 11 14 13 14 13 13 11 10 11 13 13 13 12 11 10 12 12 12 12 11 9 9 8 8 7 8 8 8 8 8 9 9 9 10 9 9 9 8 9 11 10 9 8
13 9 11 10 12 9 10 9 11 17 16 14 11 14 14 16 16 15 10 8 12 15 13 16 13 15 18 11 15 13 16 10 14 15 9 13 14 12 13 15 11 17 12 14 17 17 17 16 13 11 11 12 13 13 13 13 13 12 12 12 13 13 13 12 10 8 8 9 8 8 9 8 9 8 8 10 10 11 10 9 8 8 8 9 8 8 9
10 14 12 14 12 15 17 15 16 15 15 14 11 15 13 14 15 13 13 12 12 16 14 15 11 14 14 14 14 11 17 12 13 11 12 13 13 16 15 14 12 11 12 18 19 20 20 20 17 13 10 12 14 14 13 12 9 11 11 10 11 13 14 12 12 9 9 9 8 7 8 9 8 8 8 8 10 10 10 10 9 9 9 8 9 9 9
11 12 16 16 17 17 14 11 12 12 13 18 13 12 11 13 12 15 12 13 14 15 14 17 9 11 14 10 12 13 8 12 10 14 15 13 10 10 14 14 14 16 18 19 19 19 21 20 19 17 15 12 14 14 13 13 13 11 10 12 11 12 12 11 11 12 11 11 9 6 11 10 9 9 10 9 8 9 10 12 9 9 10 9 9 9 9
11 14 13 14 17 19 17 17 16 18 18 18 17 16 12 16 13 15 9 15 17 15 17 10 11 11 12 15 14 15 16 15 15 12 12 12 12 13 11 13 17 19 20 21 21 22 22 23 22 20 18 15 14 15 14 12 11 11 11 11 12 12 11 10 12 12 13 11 10 11 10 10 9 9 9 8 8 8 10 9 9 9 9 9 9 8 9
Wind_Speed
18 18 19 20 21 21 24 27 25 24 25 14 11 11 7 5 5 7 8 6 3 6 7 7 7 8 7 10 11 13 11 11 13 14 3 5 5 2 4 5 3 3 4 4 5 4 4 6 7 5 7 7 9 8 15 12 12 11 7 7 6 4 4 9 12 12 13 14 17 15 17 18 14 13 14 16 15 12 10 8 9 8 12 13 9 6 6
17 18 19 20 20 21 22 26 24 23 21 13 11 8 6 6 5 2 6 6 4 5 6 10 9 9 11 12 13 10 10 11 13 12 12 7 2 2 2 5 7 7 5 6 5 1 4 8 10 5 9 6 10 9 15 14 10 10 5 6 9 5 3 6 11 8 11 11 13 14 15 15 11 13 15 16 16 15 13 8 10 8 8 11 9 10 7
17 18 19 19 20 21 21 24 23 23 21 16 8 6 7 10 8 3 5 5 4 4 7 9 8 11 13 15 15 14 11 11 13 12 11 5 5 3 2 5 7 6 2 7 7 8 5 2 7 3 4 4 11 11 15 15 10 9 3 7 5 4 0 5 10 13 14 13 15 16 17 19 14 16 17 18 21 17 12 4 10 8 11 11 7 8 9
16 17 18 19 19 20 20 21 23 23 21 19 10 7 8 6 7 6 5 3 5 7 4 5 8 10 12 14 11 13 14 15 13 11 10 6 11 9 3 2 7 8 3 6 6 4 4 5 3 7 7 8 9 12 16 14 11 8 5 7 8 2 3 7 8 11 13 13 15 15 16 16 16 20 20 17 18 17 13 4 7 8 9 8 3 5 10
16 17 18 18 19 19 19 21 22 23 24 21 11 8 7 8 3 6 8 9 7 4 1 6 9 9 12 9 11 12 16 14 13 11 6 8 13 10 7 3 5 6 11 9 7 10 11 12 10 11 6 8 9 16 14 12 11 8 6 11 7 5 6 11 14 14 12 15 16 19 20 20 22 23 21 18 19 19 16 6 9 11 11 9 7 8 9
15 16 17 18 19 19 20 21 23 25 25 27 12 7 8 3 5 5 3 4 5 10 5 10 11 12 12 9 10 12 14 16 12 13 4 11 10 8 3 1 10 11 10 11 5 5 2 11 6 6 5 8 13 13 13 12 10 8 10 10 5 5 5 8 11 13 12 14 15 17 18 16 17 19 20 20 17 16 16 11 11 13 8 8 9 8 8
14 14 16 18 18 18 18 19 22 24 26 23 7 8 5 6 5 2 6 5 6 7 12 16 15 14 9 8 10 15 15 15 10 6 11 12 7 7 4 9 14 15 12 8 3 6 2 2 6 3 7 12 14 11 12 11 11 11 6 9 4 2 2 7 9 12 12 13 15 19 19 17 17 19 22 19 18 19 18 14 11 11 10 7 6 7 10
13 13 14 15 17 18 19 19 21 22 28 19 6 8 6 5 6 4 9 7 11 12 10 9 9 8 9 8 12 12 14 17 14 9 3 7 9 6 6 11 14 14 13 10 6 1 3 4 2 3 8 12 10 10 8 7 11 9 8 7 3 5 1 6 8 9 11 11 13 18 20 17 17 18 19 20 19 20 20 15 11 2 2 5 2 4 7
12 13 13 13 15 17 17 18 19 21 25 7 8 7 7 4 4 5 7 10 6 8 10 9 9 6 9 10 14 13 15 14 11 10 8 9 9 10 12 13 13 11 10 8 7 4 3 5 6 6 8 0 4 4 7 7 10 11 5 4 2 3 3 5 5 6 6 7 8 14 17 18 16 18 20 20 21 19 18 14 12 9 7 6 4 4 7
12 13 13 12 12 14 16 17 17 19 22 7 7 6 7 5 5 5 5 5 7 9 10 8 9 7 10 10 14 12 16 14 13 9 6 5 7 8 11 15 9 9 10 7 7 6 5 5 6 6 2 3 4 4 2 6 6 7 6 5 6 5 4 3 4 7 6 11 12 14 15 13 14 16 20 21 18 16 17 16 13 11 8 5 3 6 5
12 12 12 12 13 13 15 15 15 17 14 10 7 7 7 7 7 7 5 8 8 7 9 8 9 8 14 15 15 14 14 15 12 9 7 11 12 10 8 9 8 7 6 9 5 3 4 3 3 1 3 0 1 3 4 5 4 3 3 4 6 5 7 4 5 5 7 13 13 14 13 13 12 12 15 17 18 18 18 16 15 12 9 6 3 6 3
13 12 12 12 13 14 14 13 13 13 13 9 6 5 6 7 7 6 5 7 7 8 8 8 9 12 15 17 14 15 16 14 13 9 7 10 12 11 9 8 9 5 9 4 3 3 5 6 5 5 5 4 6 7 7 8 8 7 6 7 8 8 3 3 7 5 8 11 11 11 11 10 6 14 15 15 15 16 20 16 15 12 11 8 6 4 1
13 12 11 11 12 13 13 12 12 11 11 9 7 6 6 7 6 6 6 6 8 10 8 9 12 12 15 16 15 16 16 11 11 9 5 8 9 10 8 9 11 9 8 5 2 3 5 8 8 7 5 5 7 10 11 12 12 13 12 14 11 4 4 4 4 6 6 9 9 10 8 9 2 9 15 14 14 15 17 17 14 14 11 9 10 7 4
13 12 11 11 11 13 13 12 11 10 10 10 7 6 6 6 6 6 5 5 8 8 9 11 10 16 18 16 15 18 15 14 12 8 9 6 9 11 10 10 10 6 5 4 3 4 6 4 4 1 2 3 4 8 11 14 17 17 17 15 12 10 7 4 4 9 9 9 10 6 6 8 6 5 13 14 13 14 14 8 11 11 9 5 3 4 4
13 12 12 12 11 11 12 12 10 9 9 11 7 6 5 5 6 5 5 5 8 12 9 6 12 16 17 15 15 14 13 14 14 11 9 6 8 9 11 12 9 5 9 2 2 4 4 2 2 1 1 2 4 3 3 6 8 16 16 14 13 11 9 7 7 5 8 10 9 6 5 5 7 9 8 8 9 10 11 6 6 7 5 6 6 4 1
13 12 12 12 11 10 11 11 10 9 8 10 7 6 5 4 5 5 5 5 7 7 5 11 11 14 13 13 14 14 12 12 13 11 10 11 11 11 11 12 7 6 2 4 5 2 2 1 1 1 3 5 6 5 5 6 1 7 11 8 8 10 9 5 5 5 7 8 7 6 6 3 8 8 11 9 5 5 4 5 7 7 8 6 7 7 3
13 13 12 12 11 10 10 10 11 8 8 7 8 7 6 2 4 4 6 4 4 11 15 12 10 11 11 10 11 10 11 10 12 10 10 14 13 14 14 13 10 6 6 5 1 2 2 1 2 1 3 6 6 6 9 5 3 3 7 3 9 8 7 5 7 7 8 6 8 7 2 3 6 8 8 9 9 6 6 9 6 7 5 5 6 6 4
12 12 12 11 12 10 9 9 11 10 8 8 8 8 7 1 2 5 5 5 7 8 7 5 12 10 8 9 11 10 10 10 10 8 9 11 11 14 15 10 11 8 10 3 4 1 2 2 3 3 4 3 7 6 6 10 6 6 2 6 8 6 4 7 8 7 9 9 6 6 5 6 6 4 7 10 9 7 6 7 6 1 5 4 6 6 5
12 12 11 11 13 11 8 9 9 10 8 8 9 8 5 2 2 5 6 6 5 8 10 16 13 11 9 8 9 10 9 11 11 9 10 8 10 18 18 2 10 7 10 5 5 2 2 4 2 3 4 5 7 5 8 5 6 7 7 5 4 5 3 7 6 8 8 5 6 5 4 3 3 4 7 11 10 7 6 5 3 4 6 6 6 8 7
12 12 12 12 13 10 9 9 10 10 10 8 6 7 9 6 1 3 6 7 6 12 15 16 11 12 8 10 9 9 10 10 8 9 9 10 13 17 8 3 9 10 9 10 4 4 4 5 4 3 2 4 4 5 4 6 6 8 8 9 3 4 3 5 3 1 4 4 7 7 6 2 3 8 8 3 4 2 4 4 4 2 6 7 8 7 8
12 12 12 12 11 9 9 9 10 10 10 8 8 8 8 1 4 3 4 7 9 12 10 2 3 11 13 14 13 14 13 12 10 10 10 10 11 9 6 6 9 7 7 7 7 5 3 3 4 1 1 3 4 4 5 7 4 10 11 6 6 11 2 2 4 6 1 7 3 3 3 4 1 6 5 6 8 6 5 3 6 5 5 7 7 7 7
12 12 13 12 10 8 8 10 10 11 11 9 9 8 8 6 5 5 5 6 9 11 11 16 17 18 18 17 15 14 15 14 12 10 10 9 8 7 6 7 7 6 6 6 5 2 4 4 2 2 2 1 3 3 8 6 5 8 10 6 2 10 6 2 2 7 4 4 4 5 5 4 8 9 10 8 8 8 9 6 6 6 6 6 6 7 5
12 13 13 13 10 9 10 11 11 11 12 11 9 8 9 8 7 6 7 10 9 12 14 16 15 16 17 19 18 14 12 10 11 9 8 8 9 7 4 7 7 6 5 7 5 6 6 6 2 2 3 2 3 5 5 4 3 8 6 9 5 6 7 4 3 8 10 9 7 7 7 9 10 10 9 10 8 10 8 10 8 7 8 7 6 8 7
12 13 13 12 10 12 12 11 11 10 11 11 9 9 9 8 9 7 7 8 8 12 12 7 6 4 5 7 3 6 11 11 11 9 7 7 7 7 1 7 8 4 4 8 5 6 6 4 5 3 3 3 2 3 2 2 3 6 5 4 5 4 9 5 2 3 1 5 3 6 12 9 11 11 11 11 9 10 9 9 10 10 9 9 9 8 7
12 12 12 10 11 12 12 11 11 11 10 12 11 9 9 9 6 5 7 7 6 5 7 8 11 10 7 7 7 8 7 7 7 9 8 9 10 8 9 10 9 8 9 9 6 6 3 4 6 3 2 1 1 1 2 3 1 4 3 5 3 2 6 4 9 3 4 8 7 10 8 10 9 8 8 10 11 12 11 10 10 10 9 8 7 7 7
12 12 11 10 10 11 12 12 12 12 12 12 11 8 8 9 8 7 6 7 7 5 6 7 7 7 10 10 9 8 6 5 6 9 10 10 10 10 11 10 8 6 7 7 6 5 5 4 5 4 5 0 1 4 3 3 3 1 3 4 2 4 8 2 3 2 6 8 1 4 13 11 12 11 11 10 8 9 9 10 11 11 12 11 10 10 9
12 11 11 10 11 11 12 12 12 11 11 10 9 9 9 9 7 6 7 6 7 5 6 8 9 12 12 16 13 8 7 6 6 7 8 8 9 9 9 9 9 8 7 7 5 4 3 4 4 5 5 5 5 6 6 3 2 1 2 2 4 3 3 5 7 3 3 2 5 8 2 6 7 9 9 8 9 9 10 10 11 8 8 10 11 11 10
11 11 11 11 11 11 11 12 11 9 9 10 10 10 9 9 6 5 3 3 5 5 8 11 11 14 18 18 6 6 6 7 7 7 6 7 6 7 8 8 8 7 6 5 5 3 4 5 4 3 4 5 7 3 4 2 3 1 4 3 6 3 4 4 3 2 1 1 5 5 3 6 4 6 7 9 8 8 10 10 10 10 9 8 9 10 10
11 11 11 11 11 12 12 11 11 8 9 10 10 10 9 2 2 1 2 3 5 5 8 11 14 12 6 7 11 9 5 4 5 5 5 7 7 5 7 7 7 6 6 5 4 5 5 4 3 4 3 6 5 5 5 2 2 1 3 1 5 3 1 4 4 2 2 3 4 2 4 2 3 6 7 7 6 8 9 10 9 9 10 10 10 10 10
12 12 12 11 12 12 12 11 11 11 9 8 7 7 6 3 1 2 3 3 2 4 4 6 7 3 10 8 6 4 5 4 3 2 5 6 6 3 5 6 6 5 5 4 4 5 4 5 3 5 2 1 4 3 4 1 2 4 3 5 2 4 3 4 4 2 3 6 3 2 3 5 2 7 4 7 7 7 8 9 10 9 10 10 10 10 10
12 12 11 11 12 12 12 12 11 9 9 7 6 4 4 2 4 1 3 4 2 3 3 3 9 9 8 6 7 7 6 5 3 4 4 5 5 4 4 4 5 5 3 3 3 4 4 3 3 3 2 2 2 2 3 5 2 4 3 3 3 3 3 4 3 2 4 6 7 6 4 1 2 3 7 6 8 7 8 9 10 10 8 10 11 10 9
11 11 11 12 12 10 10 12 12 10 7 7 7 5 5 5 3 3 2 3 3 4 3 7 7 4 4 5 3 4 6 5 4 5 5 5 5 3 4 4 4 3 4 4 3 3 3 3 3 3 6 3 2 5 6 6 2 3 5 0 2 2 2 2 1 1 1 4 6 5 1 1 8 6 4 7 6 7 7 7 7 7 6 8 9 9 9
10 9 10 10 10 11 12 13 13 11 9 11 18 18 15 14 9 6 6 5 4 4 3 3 6 5 4 4 8 5 2 5 6 4 5 5 5 3 4 4 4 5 4 2 3 2 1 2 2 4 2 2 2 3 6 3 2 4 1 3 2 2 2 2 2 2 2 1 2 1 3 5 7 5 4 3 5 4 5 5 6 5 6 7 8 9 8
8 8 9 10 11 12 13 13 12 10 10 7 8 7 3 6 5 7 5 5 4 4 2 3 4 6 7 7 8 2 5 6 5 4 3 6 2 3 2 4 4 3 5 4 0 3 2 3 2 2 1 3 3 3 3 6 3 2 0 1 2 1 0 2 2 2 1 1 1 1 1 3 4 1 2 2 3 3 3 3 2 4 6 6 7 6 7
8 9 9 10 11 12 14 15 8 6 5 4 4 7 5 5 6 3 6 4 2 2 2 3 3 6 7 5 3 3 5 6 4 0 4 2 3 6 2 3 3 2 2 4 4 3 3 2 1 2 2 1 2 2 4 4 2 1 2 1 2 1 2 3 4 2 0 1 2 1 1 1 1 2 1 2 2 2 2 1 3 3 3 5 5 5 5
8 9 11 11 13 12 8 7 7 5 5 4 2 6 4 1 6 7 7 6 4 4 3 3 4 6 6 6 5 3 7 8 4 5 4 2 5 4 5 3 5 3 3 3 3 2 3 3 1 1 0 2 2 4 1 4 4 4 4 5 3 3 3 4 3 2 2 1 2 2 3 3 4 1 0 0 1 2 1 1 2 1 3 3 4 4 4
8 10 13 14 9 5 6 2 2 5 3 4 4 6 5 3 4 3 3 3 4 3 5 3 6 7 6 5 3 3 6 4 4 5 3 3 2 1 2 2 3 1 2 3 3 3 2 3 2 3 2 2 1 4 3 1 3 4 4 4 3 3 2 2 1 4 5 3 3 4 7 7 5 3 3 3 2 1 3 2 1 1 2 3 2 3 4
8 10 8 6 5 3 2 3 2 3 4 2 3 4 4 3 1 1 1 2 3 4 4 5 7 7 5 6 5 4 6 5 6 4 3 1 4 3 1 3 1 1 4 2 1 2 1 1 3 2 2 2 3 1 2 1 2 3 3 4 4 4 4 3 2 5 7 6 6 2 7 7 6 4 4 4 3 3 1 1 1 1 1 3 2 2 2
9 7 6 5 4 3 1 4 5 3 3 3 5 3 2 2 2 2 2 2 1 4 4 6 6 6 6 6 7 5 5 5 6 4 3 4 3 2 1 4 2 2 3 3 2 2 3 3 3 3 2 3 4 5 3 3 3 3 4 3 4 4 3 3 3 5 4 2 2 4 2 7 10 3 3 2 3 2 2 2 2 1 1 3 3 2 2
5 5 3 3 4 2 4 6 6 3 5 3 3 2 3 2 3 2 2 2 3 3 3 5 7 6 5 6 6 5 1 5 4 5 4 5 2 4 2 3 0 2 4 3 2 4 3 3 1 3 2 1 4 4 3 3 3 3 3 4 4 4 5 5 5 4 4 5 5 4 4 1 4 6 3 1 3 4 3 3 2 0 0 4 5 1 2
6 5 4 3 2 2 1 1 3 4 3 3 1 2 2 3 3 2 2 3 4 1 4 4 1 4 5 6 5 5 1 2 4 4 3 5 1 3 3 3 1 3 3 2 2 3 2 3 2 3 4 2 2 3 3 3 4 3 4 3 4 3 4 4 4 5 4 2 2 3 3 3 3 4 4 2 1 1 2 2 2 3 2 2 3 1 2
4 4 5 7 6 5 4 4 3 2 1 2 1 3 2 3 1 2 2 3 1 1 3 3 4 2 3 3 5 5 3 3 4 3 2 2 0 2 3 3 0 2 3 1 1 3 2 3 3 1 6 4 5 3 4 4 3 3 3 3 3 2 2 3 4 2 3 3 3 2 2 3 3 0 2 4 2 3 2 2 2 3 2 1 1 1 1
1 5 5 5 3 2 2 3 3 1 2 2 1 3 2 3 3 4 2 3 1 3 1 2 3 4 5 4 6 5 3 3 3 1 2 3 1 2 3 3 1 5 2 3 2 2 3 2 3 2 5 4 3 3 3 3 3 3 3 2 2 3 4 3 3 5 4 4 3 4 3 1 1 2 4 2 3 2 2 2 1 2 1 2 2 2 2
3 4 4 2 2 2 2 4 2 1 2 2 3 4 4 4 3 3 3 0 0 3 2 5 3 5 2 1 4 3 2 3 1 2 3 2 2 2 1 2 4 1 2 4 2 3 5 2 3 5 4 3 1 3 3 3 3 3 2 1 1 1 1 2 3 3 3 3 3 4 5 5 6 4 3 3 5 5 4 3 3 6 4 3 3 2 1
3 2 2 2 1 1 1 2 2 2 4 4 3 5 2 4 1 2 2 2 4 5 4 4 5 5 7 4 4 2 1 2 1 2 2 2 3 3 3 4 3 3 3 3 3 3 3 1 3 1 2 3 3 2 3 2 2 2 2 1 0 0 1 3 3 2 2 3 4 4 4 4 4 3 4 4 4 4 4 4 2 4 5 5 3 2 2
3 3 2 3 2 2 3 3 2 3 3 2 3 5 5 4 4 3 4 2 5 5 5 5 6 6 7 4 3 2 2 3 4 3 3 3 3 4 3 4 2 4 3 4 3 4 2 3 2 2 2 0 2 2 3 2 2 2 3 3 0 2 2 3 3 3 2 3 3 5 3 2 2 3 3 3 3 2 3 4 3 5 4 4 4 4 2
2 2 2 2 3 2 3 4 4 4 4 4 4 3 4 5 4 6 5 4 6 4 5 5 7 6 6 4 3 3 3 2 3 2 3 3 3 2 3 3 3 3 4 3 3 4 2 4 3 3 0 1 2 2 2 3 2 2 2 1 1 3 2 2 2 2 2 3 3 4 4 2 2 2 3 2 1 1 1 1 2 3 5 5 3 2 4
2 1 2 3 4 3 6 5 6 6 3 4 6 5 4 3 3 6 3 1 3 5 6 6 6 4 5 2 4 5 4 3 3 4 4 3 2 2 3 3 4 3 3 5 3 4 4 5 4 3 2 3 2 2 2 2 2 1 1 1 2 3 3 3 3 2 3 3 2 1 1 2 2 2 0 1 1 0 0 0 1 1 3 3 3 2 1
2 2 2 3 2 1 3 3 3 6 6 5 3 4 4 6 6 5 2 1 4 6 5 5 3 3 5 3 4 3 4 2 4 3 1 3 2 3 3 4 3 5 2 2 5 4 6 6 5 3 2 4 3 3 2 2 2 2 2 4 2 3 3 4 2 3 2 3 2 1 1 2 3 2 2 3 2 1 2 1 0 1 0 1 1 2 1
2 3 2 3 4 4 6 5 5 5 5 5 3 5 4 5 4 4 4 2 4 5 5 5 4 3 4 3 3 2 4 2 3 2 3 4 3 4 4 6 3 3 2 6 6 8 8 7 7 5 2 3 4 4 3 2 2 2 2 3 3 3 3 4 4 3 3 2 2 2 2 2 2 2 1 1 2 2 2 2 1 1 1 1 1 0 1
2 2 3 5 6 5 4 4 3 4 4 6 4 3 2 4 3 5 4 3 4 5 3 5 2 2 3 2 2 3 1 2 2 4 3 4 2 2 4 4 5 5 5 6 6 8 8 9 9 8 6 4 4 4 3 2 2 2 2 5 4 4 4 2 2 3 4 5 2 2 4 1 2 3 1 1 1 1 3 4 0 1 2 2 1 1 2
2 4 4 4 7 8 6 6 6 7 7 7 6 6 4 6 5 5 1 4 6 5 5 3 2 2 2 5 3 3 3 3 3 3 4 3 2 4 3 4 4 5 5 6 6 7 9 9 10 11 8 7 6 5 4 3 2 3 3 4 5 4 2 1 3 5 4 4 4 3 1 2 3 1 1 2 1 2 3 2 2 1 2 2 3 2 2
Wind_Direction
347 347 348 349 349 349 348 350 350 347 344 349 349 317 301 333 4 81 138 164 225 271 272 337 338 340 332 312 303 313 301 285 293 300 279 237 165 271 248 289 304 215 251 265 252 205 301 265 227 184 235 185 223 161 198 206 216 210 207 217 167 182 240 193 184 168 174 175 178 204 205 194 199 201 209 190 195 198 198 194 179 212 186 198 176 193 168
347 347 348 349 349 348 348 348 347 346 347 345 331 320 346 319 329 133 166 167 154 285 345 343 342 331 327 325 317 309 313 322 322 317 328 338 223 194 281 323 243 268 252 262 279 187 205 238 230 184 225 201 198 183 195 198 213 209 178 233 144 215 204 220 165 169 158 175 184 191 198 198 200 196 202 192 195 205 206 204 168 226 166 204 182 188 134
347 348 348 350 349 350 347 349 345 341 341 341 333 307 312 275 226 275 146 197 162 293 342 335 329 323 329 329 322 337 336 336 327 317 321 340 326 170 230 248 289 270 330 277 244 237 274 301 251 280 242 217 179 187 192 191 210 199 154 310 156 246 22 221 185 165 169 170 178 181 184 194 191 193 193 193 198 200 195 162 178 205 177 205 151 190 130
347 348 350 350 351 351 352 349 344 339 335 339 333 320 304 349 335 352 340 205 245 251 263 274 324 331 335 327 329 338 332 336 337 346 335 354 339 332 314 216 290 283 227 245 235 266 266 239 277 240 214 222 173 177 188 189 203 178 169 237 227 246 188 222 212 180 171 175 181 184 190 184 191 192 194 199 199 196 208 186 175 205 171 209 40 99 138
347 350 350 351 351 353 355 349 344 340 332 334 329 291 261 294 354 344 332 324 229 321 218 339 346 334 332 320 332 328 334 336 332 6 308 3 338 325 311 35 345 330 321 297 268 177 207 243 264 264 269 187 170 165 190 193 193 147 191 232 237 193 204 213 234 210 177 172 182 180 192 190 198 186 184 197 205 194 203 192 189 175 180 156 108 118 151
346 350 351 350 351 353 355 353 347 342 331 329 309 292 24 331 44 337 19 300 325 333 345 338 324 315 323 320 321 330 335 341 342 330 335 337 323 345 304 286 351 334 322 331 318 353 138 159 210 277 260 236 155 166 186 198 147 169 208 206 217 213 213 218 237 223 196 181 181 186 192 197 189 193 196 196 201 199 199 197 190 143 205 119 98 86 107
344 349 352 350 351 352 355 355 350 341 333 320 334 353 35 3 312 33 30 298 317 312 293 288 285 286 324 327 337 338 336 335 339 328 311 322 312 7 300 329 334 329 320 303 299 22 328 95 35 7 265 205 161 168 172 198 165 206 212 211 198 346 274 234 217 242 240 200 187 175 193 197 194 193 190 188 188 204 197 193 191 147 91 106 104 94 86
340 347 350 351 350 353 358 356 354 342 331 316 36 35 354 17 356 337 343 303 283 272 269 286 303 322 5 339 350 332 331 331 331 330 307 305 301 325 307 317 320 321 311 313 330 56 318 342 275 288 329 154 181 163 191 172 181 203 202 212 127 278 91 229 222 217 220 244 198 174 189 186 193 191 193 192 190 204 198 193 203 132 340 40 247 107 106
338 340 343 349 350 354 360 358 357 343 331 9 1 52 20 348 321 328 313 314 303 318 310 326 327 343 359 342 340 336 335 332 334 306 305 285 291 314 315 309 309 305 308 308 312 38 331 308 340 342 12 54 12 242 174 212 175 185 201 224 123 171 252 212 244 206 210 206 183 176 184 190 194 190 195 192 191 198 194 201 201 215 198 208 249 203 113
333 333 337 342 346 354 1 1 357 347 327 5 1 17 10 336 338 301 304 288 295 281 318 317 336 1 348 341 339 335 335 333 339 323 352 329 310 300 294 306 308 313 318 344 356 341 321 313 328 348 338 3 313 7 140 235 202 188 223 227 235 191 282 241 205 211 179 202 196 179 187 181 198 198 193 192 190 194 199 210 206 215 216 201 228 72 71
327 324 333 335 340 348 2 4 1 353 345 19 358 1 0 353 330 330 297 293 291 331 334 345 354 348 331 351 336 338 337 338 341 343 325 327 317 310 288 310 335 302 335 355 340 312 278 307 339 51 343 319 272 244 243 259 278 286 342 355 286 222 216 254 231 211 184 191 175 167 183 191 200 186 190 195 190 191 200 207 203 202 213 230 71 96 102
327 321 326 331 335 341 357 7 2 0 344 5 351 350 357 339 323 314 329 309 308 318 332 349 346 322 348 343 334 331 341 340 338 345 319 317 316 327 327 334 328 5 3 10 32 97 100 104 115 39 15 339 290 277 268 243 241 235 168 202 244 266 312 260 235 236 180 178 168 176 190 192 169 170 184 189 183 186 216 211 202 202 205 228 242 179 12
326 321 322 327 331 334 345 2 3 357 343 340 348 352 347 342 324 328 324 308 294 329 329 325 314 338 351 337 339 335 339 348 344 343 312 316 330 324 348 345 348 360 341 42 126 124 91 80 66 51 322 306 276 252 247 241 245 242 243 242 247 240 235 247 240 249 174 171 182 175 191 109 159 178 177 180 183 191 214 224 213 206 208 211 233 245 265
322 322 322 321 325 329 334 348 2 352 340 328 340 351 342 343 345 331 337 321 303 315 319 297 329 341 338 339 336 329 344 357 356 352 338 339 303 345 2 358 349 332 53 35 353 264 121 84 65 176 255 270 269 278 262 260 254 247 238 235 242 256 263 224 230 232 178 178 177 145 88 141 135 161 184 175 183 188 204 213 217 209 214 230 255 245 233
315 321 323 315 315 320 328 334 350 351 341 325 316 332 342 347 345 325 317 298 301 301 288 343 335 328 323 319 327 341 353 354 350 352 339 345 344 6 5 350 336 8 103 68 234 209 111 136 137 235 199 250 274 295 283 257 243 241 240 242 230 226 222 206 228 201 190 174 169 138 170 165 180 177 172 180 181 191 200 231 239 196 181 192 215 232 213
313 320 324 325 313 312 322 326 334 349 344 322 318 335 340 13 321 311 307 307 311 306 35 359 330 323 320 316 344 347 357 345 354 338 331 341 348 6 14 345 338 318 138 55 312 62 108 118 227 310 357 325 307 276 297 325 19 197 203 211 230 188 215 228 280 191 183 187 162 168 160 85 124 147 161 170 158 189 143 187 222 173 180 173 202 228 228
311 316 319 325 324 311 314 320 326 337 346 329 328 327 327 128 305 324 312 293 270 267 295 312 323 312 306 326 344 356 355 349 356 354 337 333 354 3 353 344 338 326 1 152 316 309 169 247 89 294 265 335 344 346 302 358 11 77 78 131 187 183 182 224 237 227 194 171 180 160 134 122 118 136 158 157 166 135 180 190 184 86 159 170 203 202 164
305 310 313 318 325 316 305 316 319 321 345 340 311 322 315 302 341 312 291 282 303 288 281 345 339 322 328 337 318 322 319 323 348 322 311 336 3 351 335 338 348 2 339 321 155 143 42 58 21 352 359 13 318 324 7 329 356 343 69 164 163 173 208 220 225 208 175 189 100 80 91 65 65 95 141 157 153 186 199 204 105 150 123 192 180 157 152
300 304 310 315 321 317 305 312 315 312 335 347 324 311 300 13 328 286 286 283 272 269 288 319 308 289 291 293 282 297 292 315 312 329 339 345 8 336 317 57 356 351 5 346 342 42 11 56 32 15 334 353 355 349 322 327 1 346 8 60 180 179 228 192 229 207 179 153 140 120 98 51 318 131 138 137 156 184 192 53 96 168 173 151 141 129 151
300 306 312 316 321 317 306 311 311 313 325 350 329 311 307 303 356 309 294 292 292 282 290 287 280 284 304 304 306 306 325 318 329 333 343 336 348 338 349 11 14 354 7 351 27 23 11 37 0 350 356 344 5 322 306 345 333 13 350 43 46 7 306 174 185 202 159 113 130 132 122 110 349 128 111 153 219 84 359 80 64 73 120 126 120 136 134
298 305 309 315 319 318 313 313 312 310 319 333 317 314 314 359 179 224 242 277 293 296 294 245 306 301 297 286 277 282 286 292 312 318 325 317 332 336 7 356 338 355 3 351 341 9 1 13 16 334 357 296 353 318 348 316 326 38 7 6 20 7 305 50 53 353 174 144 129 90 52 75 316 227 125 92 68 121 143 86 98 92 107 115 129 129 132
294 300 304 306 310 313 310 310 307 305 309 319 308 297 298 325 319 304 295 282 274 261 268 292 295 285 278 270 263 259 262 273 287 298 304 310 317 322 313 316 12 10 7 332 330 351 12 345 326 325 343 344 80 316 343 335 19 8 22 358 99 11 34 27 9 13 8 60 86 97 112 49 66 80 91 83 74 69 65 73 78 81 82 105 118 112 102
289 295 300 306 306 307 306 304 304 303 302 310 310 310 309 312 311 323 306 289 281 279 281 276 271 268 263 258 250 249 252 254 265 268 271 287 303 302 345 6 8 3 12 14 352 334 332 331 327 359 298 353 4 336 322 333 322 4 14 62 48 7 5 338 322 103 84 88 119 135 95 76 87 87 87 91 84 95 101 96 89 74 82 85 85 97 106
286 291 297 307 302 307 308 307 301 299 302 303 301 307 307 313 303 301 294 290 298 307 302 250 245 278 313 348 353 209 222 237 242 253 254 261 282 296 336 54 352 321 11 13 8 324 327 312 306 318 332 40 329 270 300 9 336 332 318 69 30 328 332 24 112 314 243 91 19 74 110 112 89 89 90 84 76 83 91 83 76 78 79 79 81 92 98
283 289 298 298 304 308 305 307 304 301 304 302 296 283 282 281 290 312 308 311 314 326 302 304 289 266 291 301 273 255 241 229 214 221 226 226 244 271 300 347 344 330 322 328 320 310 292 286 285 252 302 94 286 298 77 317 79 331 346 38 351 60 24 40 353 10 110 88 77 99 93 80 73 80 83 83 83 77 73 75 79 80 74 79 89 102 93
283 291 290 289 301 304 304 305 307 308 307 304 297 293 298 295 301 294 278 273 274 278 289 303 305 314 312 308 305 315 324 289 238 219 224 235 239 261 290 307 300 294 296 300 299 294 300 288 296 293 278 184 246 284 10 65 254 79 350 38 3 311 299 56 325 23 58 102 173 75 86 80 77 72 63 59 58 76 82 83 86 81 83 81 71 59 67
283 285 285 295 299 300 301 301 304 307 307 302 286 292 287 286 281 283 294 300 307 271 223 263 300 308 324 314 301 280 259 240 238 242 232 239 254 258 263 275 291 299 297 303 301 291 285 277 282 302 333 348 332 303 300 265 286 61 7 50 353 291 5 100 163 28 65 350 11 352 102 92 71 46 50 69 86 70 74 85 81 74 68 71 74 74 66
282 283 288 296 301 299 300 299 304 314 305 287 276 279 275 277 300 0 333 270 223 294 310 302 302 303 311 284 270 257 259 245 235 236 234 266 258 263 270 275 283 288 302 315 311 297 290 287 309 342 291 323 330 277 206 270 320 226 173 28 69 65 356 1 35 55 129 94 348 70 82 67 38 61 69 57 53 83 82 66 65 79 80 84 84 80 72
280 281 284 291 297 304 301 299 304 308 311 293 285 284 273 242 18 54 259 219 235 275 289 291 285 271 286 353 319 282 236 223 242 256 260 276 266 239 250 262 266 284 291 295 283 286 292 297 300 300 340 352 305 287 317 256 240 44 0 333 56 116 243 21 76 309 37 68 137 128 77 9 28 61 72 77 73 79 69 81 90 79 77 74 70 74 80
277 278 282 289 299 301 297 297 303 302 300 300 305 288 269 163 205 217 169 214 263 312 299 319 313 303 340 313 284 288 294 273 249 234 274 266 275 255 248 245 253 256 274 285 310 302 318 312 294 270 270 233 285 313 287 6 253 80 155 85 50 89 67 66 39 21 341 344 345 11 148 166 161 93 66 81 69 75 74 62 49 62 70 66 72 68 65
276 280 287 292 299 301 298 301 302 304 281 281 301 295 284 271 115 200 149 245 284 290 287 265 273 300 294 252 253 275 290 292 289 260 254 246 254 245 235 242 246 255 269 271 262 285 301 285 309 301 245 216 319 272 301 304 283 130 228 78 40 49 30 62 63 18 337 331 333 344 336 86 181 132 77 53 65 72 84 84 75 51 38 66 66 66 67
279 284 291 300 300 297 295 293 296 291 285 274 258 295 335 354 27 91 105 278 307 273 287 305 303 279 306 287 273 297 284 307 265 225 218 218 230 187 229 234 269 240 261 284 305 301 275 262 259 277 291 116 199 294 289 273 266 52 318 227 116 12 42 43 27 338 332 343 336 293 273 32 64 66 17 31 51 61 68 77 75 81 74 72 74 72 69
278 285 291 295 296 292 291 291 288 287 283 300 311 302 281 249 237 259 247 267 265 265 276 290 289 302 274 325 325 265 280 269 232 223 240 191 248 169 227 215 241 260 129 256 238 258 335 301 300 271 222 103 270 279 291 268 315 108 157 7 349 24 339 4 331 342 299 91 4 70 44 14 323 36 351 26 48 50 46 59 65 66 67 67 70 73 71
268 276 285 286 292 297 294 294 289 286 265 259 252 238 167 112 185 197 239 220 265 273 269 273 288 297 292 295 269 78 329 324 302 232 251 167 248 223 238 200 198 253 181 221 211 238 237 264 270 279 288 242 237 282 274 294 2 14 329 343 38 313 260 250 253 262 292 32 75 166 126 209 278 324 213 110 70 49 41 50 61 86 73 65 61 60 62
274 279 283 289 291 296 298 283 262 225 255 263 264 86 88 76 25 145 210 209 241 225 229 230 234 295 306 315 285 100 334 313 292 1 298 129 181 257 250 265 145 263 145 211 263 262 275 236 256 244 250 151 236 257 275 283 80 353 335 320 81 318 249 248 222 226 217 13 272 242 240 288 269 249 137 137 141 104 69 63 53 44 70 67 65 68 65
278 284 287 290 291 284 270 242 234 233 224 232 85 79 52 274 211 225 224 215 247 306 296 297 300 287 306 300 311 0 333 292 262 259 261 294 218 215 264 284 268 202 142 200 279 248 242 70 295 245 187 252 238 234 303 25 349 351 359 347 16 330 349 338 343 337 315 355 310 288 251 219 227 185 35 136 169 179 56 55 84 15 84 91 77 71 66
286 290 289 279 267 227 234 250 182 239 341 40 350 327 349 308 224 232 153 203 211 230 268 290 278 272 277 297 301 293 322 305 346 303 263 230 293 93 257 236 270 18 253 227 235 247 82 75 280 272 241 244 281 45 32 354 4 0 12 359 350 340 285 252 260 286 264 229 270 264 236 216 207 197 212 197 176 140 209 208 106 153 109 104 109 87 72
289 288 276 264 247 251 247 211 199 55 55 201 260 248 179 203 214 181 202 223 203 200 229 231 255 269 278 276 276 333 305 304 323 319 292 14 288 230 208 263 322 293 270 255 129 28 100 206 242 264 272 271 49 98 63 50 61 28 9 6 5 359 357 339 305 251 251 233 206 285 309 255 222 195 226 185 187 206 218 24 49 56 93 104 99 107 123
260 260 245 242 257 260 306 72 81 82 290 242 234 262 211 196 242 232 215 203 184 230 209 237 253 240 245 257 277 289 311 320 302 304 300 11 313 293 213 278 130 243 284 262 117 266 250 234 230 237 236 183 195 126 118 79 62 45 35 24 14 5 352 29 11 354 35 77 105 117 73 353 319 251 159 221 178 175 163 182 194 213 184 165 148 148 95
245 247 265 276 249 58 92 126 129 214 232 242 201 244 274 182 237 271 145 237 230 214 206 234 229 242 250 275 299 300 190 297 316 319 335 300 211 292 14 294 28 286 278 277 106 219 281 282 223 238 132 56 78 105 123 118 103 76 55 41 39 36 39 31 41 26 36 45 60 43 51 136 27 5 333 129 183 185 161 120 97 108 302 46 23 53 115
223 241 231 252 16 1 340 34 220 228 240 238 248 213 252 255 221 276 274 258 271 184 187 265 228 255 230 250 257 278 115 211 280 300 290 278 348 282 272 279 31 293 278 277 90 250 233 271 289 295 90 130 114 110 110 113 101 88 66 50 55 39 39 44 34 19 355 11 4 26 22 49 31 28 43 42 70 62 96 97 99 79 32 121 167 168 100
24 340 345 330 300 281 278 228 214 222 229 248 233 250 217 255 225 226 228 269 249 266 194 223 244 271 320 320 298 320 309 44 310 284 287 284 284 284 297 297 256 285 291 39 321 259 256 268 276 256 95 86 98 129 133 125 112 105 96 83 41 9 347 356 341 352 342 355 355 359 30 6 5 330 52 24 49 87 107 138 142 143 161 119 285 198 261
295 270 284 288 260 231 225 246 198 224 213 201 224 268 214 241 220 251 208 211 286 270 64 201 280 287 263 261 279 243 285 13 300 272 260 272 303 251 283 286 277 245 254 8 271 282 272 263 252 33 63 93 112 131 128 117 116 109 103 85 52 11 6 12 349 338 326 296 271 259 263 251 75 31 334 266 169 164 109 62 344 229 220 248 265 277 263
238 249 236 225 249 229 208 253 178 187 251 216 204 224 204 238 230 195 251 230 146 252 294 294 324 306 298 160 289 300 256 204 267 274 262 260 262 272 266 260 236 230 48 255 258 256 243 260 0 23 26 59 135 115 111 128 141 129 133 158 0 49 23 2 324 306 321 306 304 312 304 305 308 274 227 287 323 323 327 16 357 349 325 255 244 217 46
249 220 222 242 234 184 143 285 178 197 234 210 217 267 256 262 314 299 334 66 272 295 316 308 311 304 295 313 277 270 304 302 160 256 280 295 281 267 267 267 304 338 281 276 265 275 271 237 70 59 102 154 136 139 127 156 158 158 133 237 310 303 336 332 337 321 325 312 303 298 299 308 289 305 324 313 294 294 285 281 295 253 256 258 245 222 171
218 245 219 211 236 236 224 246 182 232 230 226 235 246 270 301 323 303 85 27 297 289 291 309 302 296 291 307 295 302 240 267 278 260 279 257 272 275 265 287 318 279 298 278 252 252 265 38 343 352 19 0 147 157 168 177 146 148 205 238 279 288 300 336 341 356 352 318 326 327 339 314 311 304 299 288 289 289 296 284 268 267 282 260 254 255 259
262 249 265 277 274 237 206 238 220 219 252 256 248 277 296 305 329 310 314 328 276 304 312 297 293 307 299 295 277 245 239 249 261 273 275 270 264 284 318 293 270 258 244 248 258 262 37 42 25 36 57 254 178 170 189 181 189 218 267 305 284 270 279 289 299 317 332 326 328 349 1 5 326 298 273 249 256 264 265 269 294 280 272 268 270 260 258
244 274 251 237 224 215 215 228 242 274 289 283 292 295 307 351 310 267 254 240 321 303 285 301 291 297 280 246 249 277 288 272 274 269 258 272 269 264 271 262 258 251 249 247 262 21 10 357 7 13 337 264 256 201 200 193 196 230 294 308 289 282 281 272 288 294 318 314 309 323 297 270 277 276 145 147 199 249 226 56 53 291 268 261 259 234 238
313 291 237 245 262 276 262 285 290 277 265 243 217 263 261 251 263 281 301 356 283 280 306 296 307 314 289 303 288 277 263 225 246 256 229 232 234 236 227 241 247 259 245 2 15 355 357 339 359 354 310 249 234 238 211 209 211 190 249 272 288 273 264 268 257 249 274 302 279 237 257 313 310 288 242 225 189 124 51 33 152 154 245 315 330 340 20
218 232 249 251 261 251 242 269 277 274 279 275 280 261 246 259 266 260 72 307 279 287 283 272 250 270 295 308 283 284 276 254 259 283 258 255 245 258 263 264 264 290 356 6 339 347 345 343 314 304 346 269 238 242 240 205 137 274 284 327 296 272 262 250 242 240 267 298 263 247 243 257 262 277 311 327 106 134 89 28 3 80 56 34 321 13 351
235 265 259 254 252 272 290 257 257 258 244 243 241 276 329 289 303 294 59 351 297 281 270 269 267 271 286 278 277 265 274 5 271 247 257 267 270 265 260 260 286 338 4 348 341 352 344 332 338 345 339 311 238 241 251 214 213 244 273 274 306 321 297 263 247 241 243 260 252 217 242 229 282 277 258 292 288 250 138 127 31 6 67 90 89 108 137
221 226 241 227 233 254 269 288 299 287 291 306 310 296 298 274 270 272 28 292 283 277 274 277 266 261 263 261 264 296 310 273 267 282 274 266 286 285 288 295 316 350 340 344 352 348 340 342 342 337 324 314 306 257 235 249 243 263 302 324 333 337 336 262 242 244 225 239 280 276 161 161 225 285 42 259 278 283 234 184 148 184 204 154 104 87 99